Location: Weymouth Pines Observatory
(42.9326°N, 81.3883°W)
Time: 20:19:17
(UTC-04:00)

Daily predictions for brighter satellites

Satellite Brightness Start Highest point End
(mag) Time Altitude Azimuth Time Altitude Azimuth Time Altitude Azimuth
Cosmos 1340 Rocket 2.9 21:40:43 10° S 21:44:40 61° E 21:48:40 10° NNE
Cosmos 1980 4.5 21:40:17 10° NW 21:45:47 51° WSW 21:51:15 10° S
Spot 1 4.2 21:44:23 10° S 21:48:27 75° WSW 21:52:40 10° NNW
Cosmos 1954 Rocket 4.2 21:43:25 10° SSW 21:48:37 79° WNW 21:53:50 10° NNE
ATLAS 5 CENTAUR R/B 2.0 21:44:20 10° SSW 21:48:44 47° ESE 21:53:33 10° NE
Cosmos 2173 Rocket 4.4 21:45:47 10° N 21:51:40 45° ENE 21:57:36 10° SSE
Lacrosse 5 3.2 21:48:35 10° NW 21:53:09 32° NNE 21:57:42 10° E
Cosmos 1850 Rocket 4.1 21:48:22 10° S 21:53:22 54° ESE 21:58:27 10° NNE
SPOT 5 3.8 21:49:29 10° SE 21:53:50 35° ENE 21:58:25 10° N
Cosmos 1605 Rocket 4.4 21:48:45 10° NNW 21:54:57 68° W 22:01:13 10° S
Cosmos 2084 3.8 21:51:22 10° S 21:55:04 36° ESE 21:58:38 10° NE
Cosmos 614 Rocket 4.0 21:50:41 10° SSW 21:55:53 82° ESE 22:01:06 10° NNE
YAOGAN 6 2.8 21:52:23 10° S 21:55:59 77° WSW 21:59:42 10° NNW
Cosmos 2237 Rocket 3.1 21:50:49 10° NW 21:56:09 45° WSW 22:01:28 10° S
Cosmos 1726 4.0 21:53:48 10° NNE 21:56:16 17° ENE 21:58:42 10° ESE
Helios 1B rocket 2.8 21:52:37 10° N 21:56:46 69° WNW 22:00:52 10° SSW
Helios 1A 3.8 21:54:34 10° S 21:58:35 49° W 22:02:38 10° NNW
CZ-4B DEB 3.3 21:56:04 10° S 21:58:58 52° W 22:01:54 10° NNW
USA 234 3.5 21:53:01 10° ENE 21:59:14 45° SE 22:05:25 10° SSW
CZ-3B R/B 4.2 22:00:05 10° SSW 22:02:58 43° ESE 22:11:39 10° NE
Atlas Centaur 2 3.2 22:04:28 10° SSW 22:05:19 11° S 22:06:09 10° S
H-2A R/B 3.1 22:00:47 10° SE 22:05:29 34° ENE 22:10:20 10° N
ERS-1 Rocket 3.0 22:02:26 10° SSE 22:07:27 85° ENE 22:12:32 10° NNW
Cosmos 1802 Rocket 4.2 22:04:21 10° N 22:10:22 54° ENE 22:16:09 11° SSE
Abrixas rocket 3.8 22:07:37 10° WNW 22:10:35 31° N 22:13:33 10° ENE
Cosmos 1818 3.6 22:05:54 10° NNW 22:11:23 87° NE 22:16:16 13° SSE
Cosmos 2227 Rocket 3.6 22:06:31 10° SW 22:11:53 43° WNW 22:17:16 10° NNE
Lacrosse 4 Rocket 3.8 22:11:12 10° WSW 22:14:55 29° NW 22:18:45 10° N
Cosmos 1908 3.2 22:12:33 10° N 22:16:28 77° E 22:20:03 12° SSE
Cosmos 1674 2.6 22:13:34 10° S 22:17:20 71° E 22:21:05 10° NNE
Cosmos 1741 Rocket 4.0 22:12:18 10° SSW 22:17:37 86° ESE 22:22:58 10° NNE
SL-16 R/B 2.4 22:14:04 10° NNW 22:19:44 70° WSW 22:25:09 11° SSE
Meteor 2-17 Rocket 4.5 22:16:47 10° N 22:22:59 84° E 22:29:08 10° S
ARGOS 3.2 22:20:18 12° SSE 22:25:22 76° ENE 22:30:47 10° N
Cosmos 1408 Rocket 3.7 22:23:35 11° S 22:27:36 55° E 22:31:50 10° NNE
MetOp-A 4.2 22:22:23 10° SSE 22:27:45 81° WSW 22:33:08 10° NNW
KORONAS-FOTON 3.8 22:24:13 11° S 22:27:50 62° E 22:31:35 10° NNE
Cosmos 1356 Rocket 3.5 22:28:35 10° S 22:32:49 86° W 22:37:09 10° N
Cosmos 1076 Rocket 3.6 22:28:50 10° S 22:33:12 79° W 22:37:35 10° N
Tiangong 1 0.6 22:31:47 10° W 22:34:35 80° S 22:36:45 15° E
Terra 2.8 22:36:22 17° ESE 22:39:18 32° ENE 22:43:32 10° N
Cosmos 2016 Rocket 4.0 22:36:06 10° N 22:42:25 81° E 22:47:32 16° S
Cosmos 2221 3.8 22:39:54 10° NNW 22:43:59 38° W 22:48:03 10° SSW
Cosmos 1500 Rocket 4.5 22:45:14 22° SE 22:47:16 32° E 22:51:16 10° NNE
Cosmos 332 Rocket 3.9 22:46:44 10° NNW 22:51:37 66° ENE 22:54:33 24° SE
ERBS 3.7 22:49:34 10° NNW 22:52:40 32° NE 22:54:40 17° E
Cosmos 2227 4.2 22:48:55 10° SSW 22:54:40 80° ESE 23:00:23 10° NNE
Cosmos 1814 Rocket 4.2 22:49:41 10° NNW 22:55:00 62° ENE 22:58:11 24° SE
Cosmos 2151 3.9 22:54:01 25° SE 22:55:34 32° E 22:59:25 10° NNE
RESURS DK-1 2.4 22:53:05 10° NNW 22:57:16 76° ENE 22:59:21 29° SE
CARTOSAT-1 4.1 22:55:32 25° SE 22:57:41 46° ENE 23:01:49 10° N
SL-08 RB Rocket 4.1 22:56:03 18° S 22:59:24 61° W 23:03:59 10° NNW
Cosmos 1242 Rocket 4.1 22:56:14 10° NNW 22:59:34 32° W 23:02:30 12° SSW
Cosmos 1486 Rocket 4.4 22:57:03 22° SSE 23:00:03 44° ESE 23:05:04 10° NNE
SPOT 1/Viking Rocket 3.6 22:56:35 20° S 23:00:15 78° WSW 23:05:26 10° NNW
Cosmos 1766 Rocket 4.1 22:58:50 10° SSW 23:03:04 55° W 23:07:21 10° N
Meteor 2-2 Rocket 4.3 22:57:23 10° N 23:03:11 90° E 23:07:11 22° S
USA 245 4.3 23:03:34 17° SSW 23:05:38 36° W 23:09:19 10° NNW
EO 1 Delta rocket 4.0 23:04:01 20° S 23:07:16 72° W 23:11:53 10° NNW
Cosmos 2233 Rocket 4.2 23:01:43 10° N 23:07:50 56° ENE 23:11:20 25° SSE
Cosmos 841 Rocket 3.9 23:03:26 10° N 23:08:33 50° ENE 23:11:13 26° SE
Cosmos 1328 Rocket 3.5 23:06:15 10° N 23:10:36 83° W 23:12:50 28° S
Cosmos 2228 Rocket 3.1 23:07:27 10° N 23:12:04 88° W 23:14:28 28° S
Cosmos 1763 Rocket 3.5 23:06:58 10° NNW 23:12:05 67° ENE 23:14:35 30° SE
SL-14 R/B 3.3 23:10:43 24° S 23:13:02 83° W 23:17:00 10° N
Cosmos 1515 Rocket 3.5 23:09:48 10° N 23:14:09 77° E 23:16:02 33° SSE
Cosmos 1328 3.9 23:15:50 24° SSW 23:18:12 74° W 23:22:16 10° N
H-2A R/B 2.2 23:17:20 34° SE 23:19:04 61° ENE 23:23:16 10° N
Cosmos 1743 Rocket 3.5 23:16:55 24° SSW 23:19:27 83° W 23:23:49 10° N
Cosmos 1151 Rocket 3.0 23:18:48 10° N 23:23:13 74° E 23:24:51 37° SSE
Cosmos 1300 3.2 23:19:35 10° NNW 23:23:20 53° W 23:25:01 29° SSW
Cosmos 2263 Rocket 2.4 23:21:44 29° SSE 23:24:16 49° ESE 23:29:39 10° NE
Cosmos 1626 2.4 23:25:43 44° ESE 23:26:15 48° E 23:29:51 10° NNE
SL-19 R/B 4.2 23:22:38 10° NNE 23:27:57 66° ESE 23:30:50 28° S
Cosmos 1726 3.6 23:28:24 10° NNW 23:31:39 30° W 23:33:27 19° SW
ATLAS 5 CENTAUR R/B 4.0 23:29:32 10° W 23:33:39 28° NW 23:38:07 10° NNE
IGS 5A 3.5 23:33:58 39° S 23:35:26 71° WSW 23:39:37 10° NNW
Lacrosse 5 2.0 23:31:24 10° NW 23:36:24 60° SW 23:38:09 38° SSE
Meteor 2-12 Rocket 4.4 23:31:34 10° N 23:37:40 80° E 23:40:35 33° SSE
USA 234 3.8 23:35:57 10° NE 23:42:21 60° NNW 23:48:45 10° WSW
Cosmos 371 Rocket 3.8 23:37:48 10° NNW 23:42:28 50° WSW 23:44:22 32° SSW
H-2A R/B 3.4 23:41:24 17° SSW 23:44:51 33° W 23:49:42 10° NNW
Cosmos 1503 Rocket 4.1 23:43:59 39° SSE 23:45:38 57° ESE 23:50:43 10° NNE
Abrixas rocket 2.1 23:44:21 10° WNW 23:47:34 85° NNW 23:47:34 85° NNW
Cosmos 2285 Rocket 4.1 23:41:25 10° NNW 23:47:44 66° ENE 23:50:38 33° SE
PSLV R/B 3.3 23:49:41 63° NW 23:49:41 63° NW 23:52:14 10° NNW
Cosmos 1869 4.3 23:46:20 10° NNE 23:49:53 31° ENE 23:50:18 31° E
CZ-4C R/B 3.6 23:53:11 50° SE 23:54:04 66° ENE 23:58:26 10° N
SL-19 R/B 4.2 23:55:52 49° NNE 23:55:52 49° NNE 23:58:13 10° N
